Stations météo

réclame
Mon MeteoGroup
Elpersbüttel, Allemagne (10130): Température de l'air & dewpoint: 15.10.2017 06:00:00 - 21.10.2017 06:00:00 (CEST)Elpersbüttel, Allemagne (10130): Température de l'air 5cm & Température de l'air -5cm: 15.10.2017 06:00:00 - 21.10.2017 06:00:00 (CEST)Elpersbüttel, Allemagne (10130): Température de l'air -20cm & Température de l'air -100cm: 15.10.2017 06:00:00 - 21.10.2017 06:00:00 (CEST)Elpersbüttel, Allemagne (10130): Vitesse du vent & gusts: 15.10.2017 06:00:00 - 21.10.2017 06:00:00 (CEST)Elpersbüttel, Allemagne (10130): Direction du vent: 15.10.2017 06:00:00 - 21.10.2017 06:00:00 (CEST)Elpersbüttel, Allemagne (10130): reduced air pressure: 15.10.2017 06:00:00 - 21.10.2017 06:00:00 (CEST)Elpersbüttel, Allemagne (10130): visibility: 15.10.2017 06:00:00 - 21.10.2017 06:00:00 (CEST)Elpersbüttel, Allemagne (10130): Ensoleillement: 15.10.2017 06:00:00 - 21.10.2017 06:00:00 (CEST)Elpersbüttel, Allemagne (10130): Quantités de précipitations: 15.10.2017 06:00:00 - 21.10.2017 06:00:00 (CEST)
Date & Time tt [°C] td [°C] tt 5cm [°C] tt -5cm [°C] tt -20cm [°C] tt -100cm [°C] ff [km/h] ff [knt] fx [km/h] fx [knt] dd ppp [hPa] vv [km] sd [min] rr [mm]
21.10.2017 06:00:00 11,9 11,1 11,4 11,5 12,7 13,5 16 8 20 11 S 1010,5 7 0 0,1
21.10.2017 05:00:00 11,9 10,8 11,5 11,6 12,7 13,5 13 7 18 10 S 1010,5 8 0 0,0
21.10.2017 04:00:00 11,8 10,7 11,4 11,6 12,8 13,5 11 6 20 11 S 1010,4 10 0 0,0
21.10.2017 03:00:00 12,0 10,5 11,6 11,6 12,8 13,5 16 9 27 15 S 1010,5 13 0 0,0
21.10.2017 02:00:00 12,2 10,5 11,4 11,7 12,9 13,5 17 9 29 16 SSW 1010,5 14 0 0,0
21.10.2017 01:00:00 12,3 10,9 11,5 11,8 13,0 13,5 18 10 29 16 SSW 1010,2 10 0 0,0
21.10.2017 00:00:00 12,2 11,2 11,6 11,9 13,0 13,5 18 10 25 14 S 1010,1 8 0 0,5
20.10.2017 23:00:00 12,2 11,0 11,6 11,9 13,1 13,5 20 11 28 15 S 1010,2 12 0 0,0
20.10.2017 22:00:00 12,4 10,7 11,7 12,0 13,2 13,5 18 10 28 15 S 1010,1 21 0 0,0
20.10.2017 21:00:00 12,6 10,9 11,6 12,3 13,4 13,5 18 10 28 15 S 1009,8 36 0 0,0
20.10.2017 20:00:00 13,1 11,2 12,0 12,7 13,4 13,5 19 10 54 29 SSW 1009,4 36 0 0,1
20.10.2017 19:00:00 14,0 12,1 13,1 13,1 13,5 13,5 16 9 27 14 SSE 1008,6 12 0 0,0
20.10.2017 18:00:00 14,4 12,5 13,4 13,7 13,4 13,5 13 7 25 13 SSE 1008,5 11 0 0,0
20.10.2017 17:00:00 15,0 12,6 14,4 14,2 13,2 13,5 13 7 31 17 SSE 1008,1 13 3 0,0
20.10.2017 16:00:00 15,4 12,9 15,5 14,1 13,1 13,5 13 7 29 16 SSE 1007,9 14 5 0,0
20.10.2017 15:00:00 14,5 12,5 14,4 13,2 12,9 13,5 13 7 32 18 SSE 1008,2 11 0 0,0
20.10.2017 14:00:00 14,6 12,3 13,7 13,1 12,8 13,5 21 11 44 24 SSE 1008,5 11 0 0,0
20.10.2017 13:00:00 15,2 12,3 14,3 12,9 12,7 13,5 23 12 41 22 SSE 1008,6 18 0 0,6
20.10.2017 12:00:00 13,9 12,0 13,0 12,4 12,6 13,5 12 7 31 17 SSE 1009,4 7 0 0,8
20.10.2017 11:00:00 14,0 11,1 13,4 12,1 12,6 13,5 13 7 23 13 SSE 1009,4 8 0 0,0
20.10.2017 10:00:00 12,9 11,3 12,2 11,8 12,6 13,5 13 7 28 15 SE 1008,8 3,7 0 0,1
20.10.2017 09:00:00 12,5 11,2 11,8 11,5 12,6 13,5 14 7 24 13 SE 1008,3 3,0 0 0,0
20.10.2017 08:00:00 12,2 11,2 11,4 11,4 12,6 13,5 11 6 26 14 SE 1008,5 2,2 0 0,0
20.10.2017 07:00:00 12,1 11,2 11,4 11,5 12,7 13,5 14 8 25 14 SE 1009,0 2,0 0 0,0
20.10.2017 06:00:00 11,8 11,3 11,3 11,5 12,7 13,5 16 8 27 14 SE 1009,1 1,2 0 0,0
20.10.2017 05:00:00 11,9 11,4 11,5 11,6 12,7 13,5 14 8 31 17 SE 1009,3 1,1 0 0,0
20.10.2017 04:00:00 12,0 11,6 11,7 11,7 12,8 13,5 13 7 29 15 SE 1009,8 0,9 0 0,0
20.10.2017 03:00:00 11,9 11,5 11,6 11,6 12,8 13,5 14 8 23 13 SE 1010,2 0,7 0 0,0
20.10.2017 02:00:00 11,9 11,5 11,6 11,5 12,9 13,5 13 7 26 14 SE 1010,2 0,8 0 0,0
20.10.2017 01:00:00 11,8 11,4 11,5 11,3 13,0 13,5 10 6 24 13 SE 1010,2 0,7 0 0,0
20.10.2017 00:00:00 11,9 11,0 10,5 11,1 13,2 13,5 5 3 14 7 ESE 1010,5 1,3 0 0,0
19.10.2017 23:00:00 12,5 11,5 11,1 11,4 13,4 13,5 7 4 16 9 SE 1011,1 1,8 0 0,0
19.10.2017 22:00:00 12,5 11,9 11,1 11,7 13,6 13,5 4 2 11 6 ESE 1011,1 1,5 0 0,0
19.10.2017 21:00:00 12,8 12,0 11,1 12,3 13,8 13,5 5 3 14 7 E 1011,2 1,4 0 0,0
19.10.2017 20:00:00 13,6 12,6 11,8 12,9 14,0 13,5 10 5 18 10 E 1011,4 2,1 0 0,0
19.10.2017 19:00:00 14,3 13,0 12,8 13,7 14,1 13,5 11 6 17 9 E 1011,4 2,7 0 0,0
19.10.2017 18:00:00 15,5 13,6 14,3 14,6 14,0 13,5 9 5 18 10 E 1011,4 3,3 0 0,0
19.10.2017 17:00:00 16,3 13,6 15,5 15,3 13,9 13,5 7 4 14 7 E 1011,7 3,5 0 0,0
19.10.2017 16:00:00 16,8 13,6 16,6 15,7 13,6 13,5 6 4 19 11 SE 1012,1 3,9 0 0,0
19.10.2017 15:00:00 16,9 13,1 17,7 16,3 13,2 13,5 12 7 22 12 SE 1012,4 4,2 58 0,0
19.10.2017 14:00:00 16,1 13,2 17,9 14,9 12,9 13,5 9 5 23 13 SE 1013,0 2,8 8 0,0
19.10.2017 13:00:00 14,5 12,5 15,7 14,0 12,6 13,5 10 6 23 12 SE 1013,3 2,9 0 0,0
19.10.2017 12:00:00 13,4 11,7 13,9 13,1 12,4 13,5 12 7 24 13 SE 1013,2 3,2 0 0,0
19.10.2017 11:00:00 12,9 11,0 13,5 11,9 12,3 13,5 8 4 18 10 SE 1013,6 8 1 0,0
19.10.2017 10:00:00 11,9 10,7 11,7 11,0 12,4 13,5 6 3 18 10 E 1013,5 8 0 0,0
19.10.2017 09:00:00 11,1 10,2 10,1 10,7 12,4 13,6 9 5 17 9 E 1013,4 9 0 0,0
19.10.2017 08:00:00 11,4 10,2 10,1 11,1 12,5 13,6 9 5 14 7 E 1013,3 10 0 0,0
19.10.2017 07:00:00 12,1 10,5 11,3 11,4 12,5 13,6 4 2 17 9 ESE 1013,2 12 0 0,0
19.10.2017 06:00:00 12,2 10,4 11,9 11,5 12,5 13,6 5 3 15 8 SE 1013,4 12 0 0,0
19.10.2017 05:00:00 12,1 10,6 11,8 11,4 12,5 13,6 8 4 18 10 E 1013,7 10 0 0,0
19.10.2017 04:00:00 11,9 10,6 11,6 11,2 12,6 13,6 10 5 16 9 E 1013,9 10 0 0,0
19.10.2017 03:00:00 11,7 10,4 11,0 11,0 12,7 13,6 10 6 16 9 E 1014,0 10 0 0,0
19.10.2017 02:00:00 11,6 10,2 10,6 11,0 12,8 13,6 8 4 14 7 ENE 1014,2 10 0 0,0
19.10.2017 01:00:00 11,5 10,3 10,3 11,1 12,9 13,6 8 4 15 8 ENE 1014,3 10 0 0,0
19.10.2017 00:00:00 11,2 10,2 10,2 11,2 13,1 13,6 6 3 13 7 E 1014,3 10 0 0,0
18.10.2017 23:00:00 11,3 10,4 10,2 11,4 13,2 13,6 4 2 8 5 ENE 1014,5 10 0 0,0
18.10.2017 22:00:00 11,6 10,4 10,3 11,9 13,4 13,6 4 2 12 7 E 1014,4 9 0 0,0
18.10.2017 21:00:00 12,0 11,2 10,6 12,4 13,5 13,6 4 2 9 5 ESE 1014,6 5 0 0,0
18.10.2017 20:00:00 12,5 11,3 11,6 12,7 13,6 13,6 6 3 10 5 E 1014,4 8 0 0,0
18.10.2017 19:00:00 12,4 11,0 10,9 13,1 13,7 13,6 5 3 5 3 N 1014,5 7 0 0,0
18.10.2017 18:00:00 13,8 11,3 12,5 14,0 13,7 13,6 3 2 9 5 SE 1014,4 11 0 0,0
18.10.2017 17:00:00 14,7 11,4 14,7 14,7 13,6 13,6 6 3 9 5 NNE 1014,6 21 0 0,0
18.10.2017 16:00:00 14,6 11,5 15,3 14,9 13,4 13,6 4 2 6 3 N 1014,7 21 0 0,0
18.10.2017 15:00:00 14,6 11,2 15,4 15,2 13,1 13,6 4 2 6 3 WNW 1014,9 19 0 0,0
18.10.2017 14:00:00 14,7 11,5 15,8 15,6 12,7 13,6 4 2 10 5 W 1015,3 16 47 0,0
18.10.2017 13:00:00 14,3 11,3 16,5 14,8 12,2 13,6 6 3 9 5 WSW 1015,6 12 54 0,0
18.10.2017 12:00:00 13,9 11,6 15,2 13,5 11,8 13,6 7 4 13 7 WSW 1015,6 9 58 0,0
18.10.2017 11:00:00 12,7 11,2 13,1 11,8 11,6 13,6 11 6 16 8 S 1015,6 8 60 0,0
18.10.2017 10:00:00 11,6 10,7 12,4 10,0 11,5 13,6 8 4 12 7 SSW 1015,6 8 40 0,0
18.10.2017 09:00:00 9,1 8,9 8,3 8,7 11,7 13,6 10 5 13 7 S 1015,5 4,2 0 0,0
18.10.2017 08:00:00 7,8 7,6 6,5 8,7 11,9 13,6 11 6 14 8 SSW 1015,4 2,3 0 0,0
18.10.2017 07:00:00 8,0 7,7 6,7 9,1 12,1 13,6 11 6 14 8 S 1015,4 3,1 0 0,0
18.10.2017 06:00:00 9,1 8,6 7,7 9,4 12,2 13,6 11 6 16 9 S 1015,5 6 0 0,0
18.10.2017 05:00:00 10,2 9,5 8,6 9,7 12,4 13,6 13 7 19 10 SW 1015,5 9 0 0,0
18.10.2017 04:00:00 10,5 9,7 9,0 10,0 12,5 13,6 15 8 22 12 SW 1015,8 10 0 0,0
18.10.2017 03:00:00 11,4 10,2 10,0 10,3 12,6 13,6 19 10 29 15 SW 1016,1 12 0 0,0
18.10.2017 02:00:00 11,6 10,3 10,2 10,5 12,8 13,6 20 11 29 15 SW 1016,4 13 0 0,0
18.10.2017 01:00:00 11,8 10,5 10,4 10,6 12,9 13,6 21 11 32 17 SW 1016,5 12 0 0,0
18.10.2017 00:00:00 12,1 10,7 10,8 10,9 13,1 13,6 22 12 30 16 SW 1016,4 12 0 0,0
17.10.2017 23:00:00 12,1 10,7 10,8 11,1 13,2 13,6 23 12 30 16 SW 1016,8 12 0 0,0
17.10.2017 22:00:00 12,7 11,2 11,9 11,4 13,3 13,6 25 13 35 19 SW 1017,0 11 0 0,0
17.10.2017 21:00:00 12,4 10,6 11,2 11,4 13,5 13,6 23 12 36 19 SW 1016,9 14 0 0,0
17.10.2017 20:00:00 12,7 10,4 11,2 11,7 13,7 13,6 23 12 36 20 SW 1016,8 16 0 0,0
17.10.2017 19:00:00 13,2 10,6 11,9 12,1 13,8 13,6 26 14 35 19 SW 1016,6 10 0 0,0
17.10.2017 18:00:00 13,6 10,4 12,2 12,7 13,9 13,6 24 13 38 20 SW 1016,9 11 0 0,0
17.10.2017 17:00:00 14,4 10,4 13,5 13,5 14,0 13,6 26 14 35 19 SW 1017,4 12 0 0,0
17.10.2017 16:00:00 14,6 10,5 14,0 14,0 13,9 13,6 27 15 40 22 SW 1017,7 12 9 0,0
17.10.2017 15:00:00 14,8 10,7 14,7 14,2 13,8 13,6 32 17 46 25 SW 1018,1 14 31 0,0
17.10.2017 14:00:00 15,0 11,0 15,2 14,2 13,7 13,6 36 19 49 26 SW 1018,6 10 41 0,0
17.10.2017 13:00:00 14,8 10,8 14,8 13,7 13,6 13,6 36 20 50 27 SW 1018,8 11 3 0,0
17.10.2017 12:00:00 14,4 11,1 14,2 13,1 13,5 13,6 35 19 46 25 SW 1018,9 20 0 0,0
17.10.2017 11:00:00 14,2 10,9 13,6 12,5 13,6 13,6 29 16 41 22 SW 1018,8 18 0 0,0
17.10.2017 10:00:00 13,6 10,7 12,6 12,0 13,7 13,6 25 13 32 18 SW 1018,9 17 0 0,0
17.10.2017 09:00:00 13,7 10,3 12,3 11,9 13,9 13,5 27 15 34 19 SW 1018,6 17 0 0,0
17.10.2017 08:00:00 14,0 10,2 12,3 12,3 14,0 13,5 24 13 34 19 SW 1018,1 17 0 0,0
17.10.2017 07:00:00 15,4 11,6 13,7 12,8 14,1 13,5 24 13 34 18 SW 1017,8 12 0 0,0
17.10.2017 06:00:00 15,3 12,9 13,7 13,1 14,2 13,5 19 10 28 15 SSW 1017,7 9 0 0,0
17.10.2017 05:00:00 16,2 13,7 14,4 13,3 14,3 13,5 19 10 25 14 SSW 1018,0 9 0 0,0
17.10.2017 04:00:00 16,6 13,7 15,0 13,5 14,4 13,5 19 10 29 16 SSW 1018,0 10 0 0,0
17.10.2017 03:00:00 17,1 13,5 15,4 13,7 14,5 13,5 23 13 32 17 SSW 1018,0 12 0 0,0
17.10.2017 02:00:00 16,9 13,4 15,2 13,8 14,6 13,5 20 11 28 15 SSW 1018,1 12 0 0,0
17.10.2017 01:00:00 16,8 13,6 15,2 14,0 14,7 13,5 21 12 29 16 S 1018,0 10 0 0,0
17.10.2017 00:00:00 17,8 14,3 16,0 14,2 14,7 13,5 21 12 29 16 S 1017,9 10 0 0,0
16.10.2017 23:00:00 18,1 14,6 16,4 14,2 14,8 13,5 20 11 29 16 S 1018,1 10 0 0,0
16.10.2017 22:00:00 17,8 14,7 16,0 14,3 15,0 13,5 15 8 23 12 SSE 1018,2 8 0 0,0
16.10.2017 21:00:00 16,8 14,5 14,7 14,4 15,1 13,5 11 6 17 9 SE 1018,4 6 0 0,0
16.10.2017 20:00:00 17,8 14,9 16,0 14,9 15,3 13,5 12 6 18 10 SSE 1018,9 7 0 0,0
16.10.2017 19:00:00 17,2 15,0 14,3 15,6 15,4 13,5 8 4 13 7 SSE 1019,1 6 0 0,0
16.10.2017 18:00:00 18,2 15,3 16,8 16,7 15,4 13,5 10 5 14 8 S 1019,2 7 11 0,0
16.10.2017 17:00:00 19,2 15,5 18,9 17,5 15,2 13,5 9 5 19 10 SW 1019,3 8 60 0,0
16.10.2017 16:00:00 19,4 15,1 20,0 18,0 14,9 13,5 14 7 26 14 SSW 1019,8 9 60 0,0
16.10.2017 15:00:00 18,9 14,7 20,1 18,0 14,5 13,5 21 11 28 15 SW 1019,9 5 60 0,0
16.10.2017 14:00:00 18,7 14,9 20,5 17,7 14,0 13,5 16 9 22 12 SW 1020,2 6 60 0,0
16.10.2017 13:00:00 17,9 14,5 19,6 16,4 13,6 13,5 16 9 21 12 SW 1020,3 6 59 0,0
16.10.2017 12:00:00 16,5 13,9 16,9 14,8 13,4 13,5 13 7 21 11 SW 1020,2 6 30 0,0
16.10.2017 11:00:00 15,5 13,4 15,5 13,9 13,2 13,4 16 8 24 13 SSW 1020,0 4,9 49 0,0
16.10.2017 10:00:00 14,7 13,0 14,5 12,4 13,2 13,4 17 9 22 12 SSW 1019,6 4,3 37 0,0
16.10.2017 09:00:00 12,8 12,0 11,9 11,8 13,2 13,4 10 5 18 10 S 1019,4 2,4 0 0,1
16.10.2017 08:00:00 13,3 12,1 11,7 11,7 13,3 13,4 16 8 24 13 SSW 1019,1 3,6 0 0,0
16.10.2017 07:00:00 13,9 12,2 12,4 11,8 13,4 13,4 18 10 26 14 SW 1019,1 4,9 0 0,0
16.10.2017 06:00:00 14,1 12,2 12,5 11,9 13,6 13,4 21 11 27 14 SSW 1018,8 6 0 0,0
16.10.2017 05:00:00 14,3 12,2 12,7 11,9 13,7 13,4 19 11 26 14 SSW 1018,8 7 0 0,0
16.10.2017 04:00:00 14,1 11,8 12,2 12,2 13,8 13,4 16 9 25 13 SSW 1018,8 8 0 0,0
16.10.2017 03:00:00 15,4 12,1 13,5 12,4 14,0 13,4 20 11 30 16 SSW 1019,1 11 0 0,0
16.10.2017 02:00:00 14,6 11,8 12,7 12,4 14,1 13,4 16 9 29 15 SSW 1019,1 12 0 0,0
16.10.2017 01:00:00 15,0 12,1 12,7 12,4 14,3 13,4 17 9 25 14 SSW 1019,2 15 0 0,0
16.10.2017 00:00:00 13,9 11,8 12,2 13,0 14,5 13,4 16 9 25 13 S 1019,5 12 0 0,0
15.10.2017 23:00:00 15,5 12,5 13,7 13,4 14,7 13,4 16 8 29 15 S 1019,2 18 0 0,0
15.10.2017 22:00:00 16,5 12,8 14,7 13,7 14,9 13,4 17 9 26 14 S 1019,3 18 0 0,0
15.10.2017 21:00:00 17,1 13,0 15,1 14,2 15,1 13,4 14 8 24 13 S 1019,5 25 0 0,0
15.10.2017 20:00:00 17,5 13,4 15,6 14,8 15,3 13,4 16 9 26 14 S 1019,8 26 0 0,0
15.10.2017 19:00:00 18,0 13,9 15,8 15,5 15,5 13,4 14 7 19 11 S 1020,0 23 5 0,0
15.10.2017 18:00:00 18,0 14,4 16,5 16,7 15,5 13,4 14 8 17 9 S 1020,0 21 60 0,0
15.10.2017 17:00:00 19,6 15,5 20,0 17,8 15,3 13,4 14 8 24 13 S 1020,2 17 60 0,0
15.10.2017 16:00:00 20,0 15,2 20,5 18,4 15,0 13,3 19 11 27 15 S 1020,7 11 60 0,0
15.10.2017 15:00:00 20,2 15,5 21,6 18,6 14,6 13,3 18 10 29 16 S 1021,2 8 60 0,0
15.10.2017 14:00:00 19,3 15,2 21,2 18,2 14,1 13,3 18 10 26 14 S 1021,8 5 60 0,0
15.10.2017 13:00:00 18,2 14,6 20,1 17,0 13,6 13,3 15 8 22 12 S 1022,6 5 60 0,0
15.10.2017 12:00:00 17,1 14,2 19,1 15,4 13,3 13,3 14 7 22 12 S 1023,1 6 60 0,0
15.10.2017 11:00:00 14,7 13,6 15,8 13,5 13,1 13,3 10 5 15 8 SSE 1023,6 2,6 51 0,0
15.10.2017 10:00:00 12,4 12,3 12,6 12,1 13,2 13,3 10 6 18 10 S 1023,8 0,3 0 0,0
15.10.2017 09:00:00 11,5 11,2 11,0 11,4 13,3 13,3 10 5 19 10 SSE 1023,9 0,2 0 0,0
15.10.2017 08:00:00 12,0 11,7 10,9 11,4 13,5 13,3 12 7 18 10 S 1023,8 1,6 0 0,0
15.10.2017 07:00:00 12,3 12,0 11,1 11,7 13,7 13,3 12 6 15 8 S 1024,0 1,6 0 0,0
15.10.2017 06:00:00 12,2 11,7 10,9 12,3 13,9 13,3 11 6 21 11 S 1023,8 1,3 0 0,0

tt = Température de l'air
td = dewpoint
tt 5cm = Température de l'air 5cm
tt -5cm = Température de l'air -5cm
tt -20cm = Température de l'air -20cm
tt -100cm = Température de l'air -100cm
ff = Vitesse du vent
fx = gusts
dd = Direction du vent
ppp = reduced air pressure
vv = visibility
sd = Ensoleillement
rr = Quantités de précipitations

stations d'obs. à proximité